This is the latest recevied weather packets stored in our database for station/object KC1TEM-13. If no packets are shown the sender has not sent any weather packets the latest 10 day(s).
| Time | Temp. | Humidity | Pressure | Rain* | Wind** | Luminosity | Snow |
|---|---|---|---|---|---|---|---|
| 1788446675 | 18.33° C | 98% | 1015.2 hPa | 0 mm | - | 113 W/m² | - |
| 1788446371 | 18.33° C | 98% | 1015.2 hPa | 0 mm | - | 124 W/m² | - |
| 1788446067 | 17.78° C | 98% | 1015.1 hPa | 0 mm | - | 143 W/m² | - |
| 1788445763 | 17.78° C | 98% | 1015.3 hPa | 0 mm | - | 100 W/m² | - |
| 1788445459 | 18.33° C | 98% | 1015.5 hPa | 0 mm | - | 84 W/m² | - |
| 1788445154 | 17.78° C | 98% | 1015.6 hPa | 0 mm | - | 91 W/m² | - |
| 1788444850 | 17.78° C | 98% | 1015.3 hPa | 0 mm | - | 101 W/m² | - |
| 1788444546 | 17.78° C | 99% | 1015.7 hPa | 0 mm | - | 86 W/m² | - |
| 1788444241 | 17.78° C | 99% | 1015.6 hPa | 0 mm | - | 102 W/m² | - |
| 1788443936 | 17.78° C | 99% | 1015.6 hPa | 0 mm | - | 108 W/m² | - |
| 1788443632 | 17.78° C | 99% | 1015.5 hPa | 0 mm | - | 75 W/m² | - |
| 1788443330 | 17.78° C | 99% | 1015.5 hPa | 0 mm | - | 91 W/m² | - |
| 1788443026 | 17.78° C | 99% | 1015.5 hPa | 0 mm | - | 54 W/m² | - |
| 1788442723 | 17.78° C | 99% | 1015.6 hPa | 0 mm | - | 86 W/m² | - |
| 1788442420 | 17.78° C | 99% | 1015.3 hPa | 0 mm | - | 89 W/m² | - |
| 1788442120 | 17.22° C | 99% | 1015.4 hPa | 0 mm | - | 60 W/m² | - |
| 1788441816 | 17.22° C | 99% | 1015.3 hPa | 0 mm | - | 56 W/m² | - |
| 1788441515 | 17.22° C | 99% | 1015.5 hPa | 0 mm | - | 69 W/m² | - |
| 1788441210 | 17.22° C | 99% | 1015.6 hPa | 0 mm | - | 56 W/m² | - |
| 1788440909 | 17.22° C | 99% | 1015.5 hPa | 0 mm | - | 63 W/m² | - |
| 1788440604 | 17.22° C | 99% | 1015.6 hPa | 0 mm | - | 60 W/m² | - |
| 1788440303 | 17.22° C | 99% | 1015.6 hPa | 0 mm | - | 60 W/m² | - |
| 1788439998 | 17.22° C | 99% | 1015.6 hPa | 0 mm | - | 57 W/m² | - |
| 1788439697 | 17.22° C | 99% | 1015.8 hPa | 0 mm | - | 58 W/m² | - |
| 1788439393 | 17.22° C | 99% | 1015.8 hPa | 0 mm | - | 58 W/m² | - |
* Rain latest hour (hover to see other rain measurements)
** Current wind speed in m/s (hover to see current wind gust speed)